INTELSAT 34 (IS-34) (40874 NORAD) Tracking and Keplerian Element Data

This shows tracking and keplerian element data for the satellite.

Feedback or suggestion? Click here.




ElementValue
Catalog40874
NameINTELSAT 34 (IS-34)
Epoch Orbit2224
Epoch Day262.07271632
Epoch Year2021
RAAN288.5401
Inclination0.0499
Eccentricity0.0001105
Argument of Perigee119.6305
Mean Anonmoly280.7162
Mean Motion1.00272084
Decay Rate-3.09E-06
L11 40874U 15039A 21262.07271632 -.00000309 00000-0 00000+0 0 9994
L22 40874 0.0499 288.5401 0001105 119.6305 280.7162 1.00272084 22247

Live tracking and technical data element details for INTELSAT 34 (IS-34) (NORAD 40874). INTELSAT 34 (IS-34) can be tracked NOW for your location showing map with azimuth and elevation plus other details from your city location.

Track the satellite on the map from your city or location and see movement details for azimuth, elevation, latitude, longitude, range, height, and movement on the map or in text.







IsCatalogInMostPopularTable: catalog: 40874, numindb: 590
Update: records affected: 1



GetName: 40874 INTELSAT 34 (IS-34)

Hit Count: updated at: Sun, 26 Sep 2021 00:08:47 GMT